Terug naar catalogus

SL-12 R/B(2)

ActiefMEO
NORAD 29673·ROCKET BODY·🇷🇺 Russia

Gelanceerd Dec 25, 2006 vanaf Baikonur Cosmodrome

Loading…

Volgende Passages (komende 24 uur)

TLE

VersSource: Space-Track

Epoch: Sep 14, 2026, 12:35 UTC

1 29673U 06062D   26257.52496638  .00000020  00000-0  00000-0 0  9998
2 29673  64.7058 190.6421 0028593 193.7483 338.7727  2.13404159153896

Volg SL-12 R/B(2) in realtime met AllMySat

Download on the App Store